Погода в Красном Богатыре

Россия / Владимирская область     56°00′52″N   41°07′43″E
темп.,
°C
ветер,
м/с
пор.,
м/с
влажн.,
%
обл.,
%
осадки,
мм/ч
давл.,
гПа
погр.,
м
20 апреля, вт
вт2000:00+3в51250100 0.1 1026637
03:00+2в51254100 0.1 1026539
06:00+1в51260100 0.0 1025433
09:00+5в61052100 0.0 1025701
12:00+9вюв71050100 0.0 10221305
15:00+9вюв61157100 0.1 10221442
18:00+4вюв51495100 2.1 1021978
21:00+4вюв61695100 4.3 10181204
21 апреля, ср
ср2100:00+4вюв61588100 0.9 10151082
03:00+2в71797100 6.5 1010934
06:00+3вюв81892100 2.8 10051014
09:00+7юв91887100 3.1 10031301
12:00+3ю51397100 5.9 1005770
15:00+5ююз51088100 6.9 1008746
18:00+4юз4788100 0.0 1010856
21:00+3ююз3894100 0.0 1012452
22 апреля, чт
чт2200:00+3ююз3896100 0.0 1013498
03:00+3ююз3896100 0.0 1015337
06:00+3ю2696100 0.0 1016224
09:00+7ююз247985 0.0 1017634
12:00+8юз3569100 0.4 10171188
15:00+10юз466675 0.9 10181265
18:00+9ююз477137 0.1 1019665
21:00+4ю38855 0.1 1020154
23 апреля, пт
пт2300:00+5ююв31089100 0.0 1020217
03:00+6ююв412855 0.0 1019336
06:00+5ююв411916 0.0 1019297
09:00+11ю59705 0.0 1019593
12:00+16ююз58535 0.1 10181522
15:00+15ю485793 1.0 1018665
18:00+14ююв386344 0.7 1018319
21:00+9ююв310845 0.7 1018205
24 апреля, сб
сб2400:00+8юв412875 0.0 1016300
03:00+7юв4128877 0.0 1015308
06:00+7юв4138682 0.1 1013385
09:00+12ююв5117199 0.3 1011911
12:00+12ююв8126996 0.6 10101313
15:00+13юв61065100 1.1 10071447
18:00+5зюз3795100 7.8 1008402
21:00+4з3893100 11.4 1009681